This demonstration page uses our WeatherBlox Daily Observations layout. Learn more.

39.92423, -83.80882

Hourly Observations for September 19, 2016

Temp ( °F °C ) Dew Point ( °F °C ) Humidity (%) Winds ( mph kmh ) Pressure ( in mb ) Visibility ( mi km ) Precip ( " mm )
12:56 am 00:56 Clear 65 18.3 64 17.8 97 97 Calm 30 1016 10 16.0934 0 0
1:56 am 01:56 Clear 65 18.3 63 17.2 93 93 Calm 29.98 1015 10 16.0934 0 0
2:56 am 02:56 Clear 61 16.1 61 16.1 100 100 NW 3 6 29.99 1016 9 14.48406 0 0
3:56 am 03:56 Clear with Mist and Fog 62 16.7 61 16.1 96 96 Calm 29.99 1016 1.5 2.41401 0 0
4:06 am 04:06 Clear with Mist and Fog 61 16 61 16 100 100 Calm 30 1016 2 3.21868 0 0
4:13 am 04:13 Clear 61 16 59 15 94 94 Calm 30 1016 9 14.48406 0 0
4:21 am 04:21 Mostly Clear with Mist and Fog 61 16 59 15 94 94 Calm 30 1016 1.5 2.41401 0 0
4:23 am 04:23 Mostly Cloudy with Mist and Fog 61 16 59 15 94 94 Calm 30 1016 0.75 1.207005 0 0
4:27 am 04:27 Mostly Cloudy with Fog 61 16 59 15 94 94 Calm 30.03 1017 0.25 0.402335 0 0
4:56 am 04:56 Mostly Cloudy with Fog 59 15 59 15 100 100 Calm 30 1016 0.25 0.402335 0 0
5:56 am 05:56 Cloudy with Fog 58 14.4 58 14.4 100 100 Calm 30.01 1016 0.25 0.402335 0 0
6:03 am 06:03 Mostly Cloudy with Mist and Fog 59 15 57 14 94 94 Calm 30.03 1017 0.75 1.207005 0 0
6:14 am 06:14 Mostly Cloudy with Fog 61 16 61 16 100 100 Calm 30.03 1017 0.25 0.402335 0 0
6:56 am 06:56 Mostly Cloudy with Fog 60 15.6 59 15 96 96 Calm 30.03 1017 0.5 0.80467 0 0
7:00 am 07:00 Clear with Mist and Fog 59 15 59 15 100 100 Calm 30.06 1018 1 1.60934 0 0
7:10 am 07:10 Clear with Fog 59 15 59 15 100 100 Calm 30.06 1018 0.5 0.80467 0 0
7:19 am 07:19 Clear with Fog 59 15 59 15 100 100 Calm 30.06 1018 0.25 0.402335 0 0
7:30 am 07:30 Mostly Cloudy with Fog 55 13 55 13 100 100 Calm 30.06 1018 5 8.0467 0 0
7:56 am 07:56 Mostly Cloudy with Fog 58 14.4 57 13.9 97 97 Calm 30.05 1018 0.25 0.402335 0 0
8:10 am 08:10 Mostly Cloudy with Fog 59 15 59 15 100 100 Calm 30.06 1018 0.5 0.80467 0 0
8:13 am 08:13 Mostly Cloudy with Mist and Fog 59 15 59 15 100 100 Calm 30.06 1018 1 1.60934 0 0
8:22 am 08:22 Sunny with Mist and Fog 61 16 61 16 100 100 Calm 30.09 1019 1.75 2.816345 0 0
8:42 am 08:42 Sunny with Mist and Fog 63 17 63 17 100 100 Calm 30.09 1019 3 4.82802 0 0
8:56 am 08:56 Sunny 65 18.3 63 17.2 93 93 Calm 30.07 1018 9 14.48406 0 0
9:56 am 09:56 Sunny 70 21.1 64 17.8 82 82 Calm 30.08 1019 10 16.0934 0 0
10:56 am 10:56 Sunny 76 24.4 63 17.2 64 64 N 5 7 30.08 1019 10 16.0934 0 0
11:56 am 11:56 Sunny 78 25.6 62 16.7 58 58 VRB 5 7 30.07 1018 10 16.0934 0 0
12:56 pm 12:56 Mostly Sunny 79 26.1 59 15 50 50 VRB 5 7 30.07 1018 10 16.0934 0 0
1:56 pm 13:56 Sunny 80 26.7 60 15.6 51 51 N 5 7 30.06 1018 10 16.0934 0 0
2:56 pm 14:56 Sunny 82 27.8 57 13.9 42 42 N 6 9 30.05 1018 10 16.0934 0 0
3:56 pm 15:56 Sunny 83 28.3 57 13.9 41 41 NW 6 9 30.04 1017 10 16.0934 0 0
4:56 pm 16:56 Sunny 83 28.3 54 12.2 37 37 N 3 6 30.04 1017 10 16.0934 0 0
5:56 pm 17:56 Sunny 82 27.8 54 12.2 38 38 NE 3 6 30.04 1017 10 16.0934 0 0
6:56 pm 18:56 Sunny 79 26.1 56 13.3 45 45 Calm 30.04 1017 10 16.0934 0 0
7:56 pm 19:56 Clear 74 23.3 54 12.2 50 50 NNE 7 11 30.06 1018 10 16.0934 0 0
8:56 pm 20:56 Clear 67 19.4 58 14.4 73 73 NW 3 6 30.09 1019 10 16.0934 0 0
9:56 pm 21:56 Clear 68 20 55 12.8 63 63 Calm 30.08 1019 10 16.0934 0 0
10:56 pm 22:56 Clear 63 17.2 57 13.9 81 81 Calm 30.08 1019 10 16.0934 0 0
11:56 pm 23:56 Clear 62 16.7 57 13.9 84 84 Calm 30.11 1020 10 16.0934 0 0

Powered by AerisWeather